Voltar ao catálogo

STARLINK-31251

AtivoComunicaçõesVLEO
NORAD 58836·PAYLOAD·🇺🇸 United States

Lançado Jan 24, 2024 de Vandenberg Space Force Base

Loading…

Próximas Passagens (próximas 24 horas)

TLE

AtualizadoSource: CelesTrak SupGP

Época: Sep 15, 2026, 03:23 UTC

1 58836C 24017L   26258.14145833  .00006955  00000+0  20555-3 0  2588
2 58836  53.1605  42.6004 0001219  92.0969  15.4722 15.34377379    17

Acompanhe STARLINK-31251 em tempo real com AllMySat

Download on the App Store